Temp
-33 -33 -33 -33 -33 -33 -33 -33 -33 -33 -33 -33 -33 -33 -33 -33 -33 -33 -33 -33 -32 -32 -31 -31 -30 -29 -28 -28 -28 -28 -27 -27 -27 -26 -26 -25 -25 -25 -25 -25 -25 -24
-33 -33 -33 -33 -33 -33 -33 -33 -33 -33 -33 -33 -33 -33 -33 -33 -33 -33 -33 -33 -33 -32 -32 -32 -31 -31 -30 -29 -28 -28 -28 -27 -27 -26 -26 -26 -25 -25 -25 -25 -25 -25
-34 -33 -33 -33 -33 -33 -33 -33 -33 -33 -33 -33 -33 -33 -33 -33 -33 -33 -33 -33 -33 -33 -33 -33 -32 -32 -31 -30 -29 -29 -28 -28 -27 -27 -26 -26 -26 -25 -25 -25 -25 -25
-34 -33 -33 -33 -33 -33 -33 -33 -33 -33 -33 -33 -33 -33 -33 -33 -33 -33 -33 -33 -33 -33 -33 -33 -33 -33 -32 -32 -31 -30 -29 -28 -28 -27 -27 -27 -26 -26 -26 -25 -25 -25
-34 -33 -33 -33 -33 -33 -33 -33 -33 -33 -33 -33 -33 -33 -33 -33 -33 -33 -33 -33 -33 -33 -33 -33 -33 -33 -33 -33 -32 -31 -30 -29 -28 -28 -27 -27 -27 -27 -26 -26 -26 -25
-33 -33 -33 -33 -33 -33 -33 -33 -32 -32 -33 -33 -33 -33 -33 -33 -33 -33 -33 -33 -33 -33 -33 -33 -33 -33 -33 -33 -33 -32 -31 -30 -29 -28 -28 -27 -27 -27 -27 -26 -26 -26
-33 -33 -33 -33 -33 -33 -32 -32 -32 -32 -32 -32 -32 -33 -33 -33 -33 -33 -33 -33 -33 -33 -33 -33 -33 -33 -33 -33 -33 -33 -32 -31 -30 -30 -29 -28 -28 -27 -27 -27 -27 -26
-34 -33 -33 -33 -33 -33 -32 -32 -32 -32 -32 -32 -32 -32 -32 -33 -33 -33 -33 -33 -33 -33 -33 -33 -33 -33 -33 -33 -33 -33 -33 -32 -31 -31 -30 -29 -28 -28 -27 -27 -27 -27
-33 -33 -33 -33 -33 -33 -32 -32 -32 -32 -32 -32 -32 -32 -32 -32 -32 -32 -32 -32 -33 -33 -33 -33 -33 -33 -33 -33 -33 -33 -33 -33 -32 -32 -31 -30 -29 -29 -28 -28 -27 -27
-33 -33 -33 -33 -32 -32 -32 -32 -32 -32 -32 -32 -32 -32 -32 -32 -32 -32 -32 -32 -32 -32 -32 -33 -33 -33 -33 -33 -33 -33 -33 -33 -33 -32 -32 -31 -30 -30 -29 -29 -28 -28
-33 -33 -33 -33 -32 -32 -32 -32 -32 -32 -32 -32 -32 -32 -32 -32 -32 -32 -32 -32 -32 -32 -32 -32 -33 -33 -33 -33 -33 -33 -33 -33 -33 -33 -33 -32 -31 -31 -30 -29 -29 -28
-33 -33 -33 -32 -32 -32 -32 -32 -32 -32 -32 -32 -32 -32 -32 -32 -32 -32 -32 -32 -32 -32 -32 -32 -32 -32 -33 -33 -33 -33 -33 -33 -33 -33 -33 -33 -32 -32 -31 -30 -30 -29
-32 -32 -32 -32 -32 -32 -32 -32 -32 -32 -32 -32 -31 -31 -31 -31 -31 -31 -32 -32 -32 -32 -32 -32 -32 -32 -32 -33 -33 -33 -33 -33 -33 -33 -33 -33 -33 -32 -32 -31 -31 -30
-32 -32 -32 -32 -32 -32 -32 -32 -32 -32 -32 -32 -32 -31 -31 -31 -31 -31 -31 -31 -31 -32 -32 -32 -32 -32 -32 -32 -33 -33 -33 -33 -33 -33 -33 -33 -33 -33 -33 -32 -32 -31
-32 -32 -32 -32 -32 -32 -32 -32 -32 -32 -32 -32 -32 -31 -31 -31 -31 -31 -31 -31 -31 -31 -32 -32 -32 -32 -32 -32 -32 -33 -33 -33 -33 -33 -33 -33 -33 -33 -33 -33 -32 -32
-32 -32 -32 -32 -32 -32 -32 -32 -32 -32 -32 -32 -32 -32 -31 -31 -31 -31 -31 -31 -31 -31 -31 -32 -32 -32 -32 -32 -32 -32 -32 -32 -32 -33 -33 -33 -33 -33 -33 -33 -32 -32
-32 -32 -32 -32 -32 -32 -32 -32 -32 -32 -32 -32 -32 -32 -32 -32 -32 -31 -31 -31 -31 -31 -31 -32 -32 -32 -32 -32 -32 -32 -32 -32 -32 -32 -33 -33 -33 -33 -33 -33 -33 -33
-32 -32 -32 -32 -32 -32 -32 -32 -32 -32 -32 -32 -32 -32 -32 -32 -32 -32 -31 -31 -31 -31 -32 -32 -32 -32 -32 -32 -32 -32 -32 -32 -32 -32 -32 -32 -33 -33 -33 -33 -33 -33
-32 -32 -32 -32 -32 -32 -32 -32 -32 -32 -32 -32 -32 -32 -32 -32 -32 -32 -32 -32 -32 -32 -32 -32 -32 -32 -32 -32 -32 -32 -32 -32 -32 -32 -32 -32 -32 -32 -33 -33 -33 -33
-32 -32 -32 -32 -32 -32 -33 -33 -32 -32 -32 -32 -32 -32 -32 -32 -32 -32 -32 -32 -32 -32 -32 -32 -32 -32 -32 -32 -32 -32 -32 -32 -32 -32 -32 -32 -32 -32 -32 -32 -32 -32
-32 -32 -32 -32 -32 -33 -33 -33 -33 -33 -33 -33 -33 -33 -33 -33 -33 -33 -32 -32 -32 -32 -32 -32 -32 -32 -32 -32 -32 -32 -32 -32 -32 -32 -32 -32 -33 -33 -33 -32 -32 -32
-32 -32 -32 -33 -33 -33 -33 -33 -33 -33 -33 -33 -33 -33 -33 -33 -33 -33 -33 -33 -33 -33 -33 -33 -33 -33 -33 -33 -33 -33 -33 -33 -33 -33 -33 -33 -33 -33 -33 -33 -33 -32
-32 -33 -33 -33 -33 -33 -33 -33 -33 -33 -33 -33 -33 -33 -33 -33 -33 -33 -33 -33 -33 -33 -34 -34 -34 -34 -34 -34 -34 -34 -33 -33 -33 -33 -33 -33 -33 -33 -33 -33 -33 -33
-33 -33 -33 -33 -33 -33 -33 -33 -33 -34 -34 -34 -34 -34 -34 -34 -34 -34 -34 -34 -34 -34 -34 -34 -34 -34 -34 -34 -34 -34 -34 -34 -34 -34 -33 -33 -33 -33 -33 -33 -33 -33
-33 -33 -33 -33 -33 -34 -34 -34 -34 -34 -34 -34 -34 -34 -34 -35 -35 -35 -35 -35 -35 -35 -35 -35 -35 -35 -35 -35 -35 -35 -35 -34 -34 -34 -34 -34 -34 -34 -34 -34 -34 -34
-33 -33 -33 -34 -34 -34 -34 -34 -34 -34 -34 -35 -35 -35 -35 -35 -35 -35 -35 -35 -35 -35 -35 -35 -35 -35 -35 -35 -35 -35 -35 -35 -35 -35 -35 -35 -35 -35 -35 -35 -35 -35
Height
5323 5323 5323 5322 5322 5322 5322 5322 5322 5323 5323 5323 5324 5324 5325 5325 5326 5326 5327 5327 5328 5330 5332 5335 5339 5344 5349 5355 5361 5368 5375 5383 5390 5397 5403 5407 5413 5419 5424 5428 5433 5439
5318 5317 5317 5317 5317 5316 5316 5316 5316 5317 5317 5317 5317 5318 5318 5319 5319 5319 5320 5321 5322 5323 5325 5326 5328 5332 5336 5341 5348 5354 5361 5369 5377 5384 5390 5395 5401 5407 5412 5417 5422 5427
5312 5312 5311 5311 5311 5310 5310 5310 5311 5311 5311 5312 5312 5312 5312 5312 5313 5313 5314 5314 5315 5317 5318 5318 5320 5323 5326 5330 5335 5340 5346 5354 5363 5370 5376 5382 5389 5395 5401 5406 5411 5415
5307 5307 5306 5306 5305 5305 5305 5305 5305 5305 5306 5306 5306 5306 5306 5306 5307 5307 5308 5308 5309 5310 5311 5312 5314 5316 5318 5320 5324 5327 5333 5341 5350 5358 5363 5370 5377 5383 5390 5396 5400 5405
5302 5302 5301 5301 5300 5300 5300 5299 5300 5300 5300 5300 5300 5300 5301 5301 5301 5301 5302 5303 5304 5305 5306 5306 5308 5310 5311 5313 5315 5318 5323 5331 5339 5345 5350 5358 5365 5372 5379 5384 5389 5394
5297 5296 5296 5295 5295 5295 5294 5294 5294 5294 5295 5295 5295 5295 5295 5295 5295 5296 5297 5297 5298 5299 5300 5301 5303 5304 5305 5306 5308 5311 5316 5321 5327 5331 5337 5345 5353 5360 5367 5373 5378 5383
5292 5291 5291 5290 5290 5290 5289 5289 5289 5289 5289 5289 5290 5290 5290 5290 5290 5291 5291 5292 5293 5294 5295 5297 5298 5299 5300 5301 5303 5305 5308 5312 5316 5320 5326 5334 5340 5347 5354 5361 5367 5372
5287 5286 5286 5285 5285 5285 5285 5284 5284 5284 5284 5284 5285 5285 5285 5285 5286 5286 5286 5287 5288 5289 5291 5292 5293 5294 5295 5296 5298 5300 5301 5304 5307 5311 5316 5323 5329 5335 5342 5348 5355 5361
5281 5281 5280 5280 5280 5280 5280 5280 5279 5279 5279 5279 5280 5281 5281 5281 5281 5282 5282 5283 5283 5284 5286 5287 5289 5290 5291 5292 5293 5295 5296 5298 5300 5303 5308 5313 5318 5324 5331 5336 5342 5349
5276 5275 5275 5275 5275 5275 5275 5275 5275 5275 5274 5274 5275 5276 5277 5277 5277 5277 5278 5278 5279 5280 5281 5282 5284 5285 5286 5288 5289 5290 5292 5294 5295 5297 5301 5305 5310 5315 5320 5325 5331 5338
5269 5270 5270 5270 5270 5270 5270 5270 5270 5270 5270 5269 5270 5271 5272 5273 5273 5273 5274 5274 5275 5276 5277 5278 5279 5280 5282 5283 5285 5286 5288 5289 5291 5293 5295 5298 5302 5306 5311 5315 5321 5328
5263 5263 5264 5264 5265 5264 5264 5265 5265 5265 5265 5265 5265 5266 5267 5268 5269 5269 5270 5270 5271 5272 5273 5274 5275 5276 5277 5279 5281 5282 5284 5285 5287 5288 5290 5293 5295 5299 5303 5307 5313 5319
5256 5257 5258 5258 5259 5259 5260 5260 5260 5260 5261 5261 5261 5261 5262 5263 5264 5265 5265 5266 5267 5268 5269 5270 5271 5271 5273 5275 5276 5278 5280 5281 5283 5284 5286 5288 5290 5293 5296 5300 5304 5310
5249 5250 5252 5253 5253 5254 5255 5255 5255 5255 5256 5256 5256 5256 5257 5258 5259 5260 5261 5262 5263 5264 5265 5266 5266 5267 5269 5271 5272 5274 5275 5277 5279 5280 5282 5284 5286 5288 5291 5294 5297 5301
5243 5244 5246 5247 5248 5250 5250 5250 5250 5250 5250 5251 5251 5252 5252 5253 5254 5255 5256 5257 5258 5259 5260 5261 5262 5263 5265 5267 5268 5269 5271 5272 5274 5276 5278 5279 5281 5283 5286 5288 5291 5295
5237 5239 5240 5242 5243 5244 5245 5245 5245 5245 5246 5246 5247 5247 5248 5248 5249 5250 5251 5252 5253 5254 5256 5257 5258 5260 5261 5262 5263 5265 5266 5268 5270 5272 5274 5275 5277 5279 5281 5283 5286 5289
5232 5233 5235 5236 5238 5239 5240 5241 5240 5241 5241 5242 5242 5243 5243 5244 5244 5245 5246 5247 5248 5249 5251 5253 5254 5255 5257 5258 5259 5260 5261 5263 5265 5267 5269 5271 5273 5275 5277 5279 5281 5283
5227 5228 5230 5231 5233 5235 5235 5236 5236 5236 5237 5237 5238 5238 5239 5239 5240 5240 5241 5242 5243 5244 5246 5248 5249 5251 5252 5253 5254 5255 5257 5259 5261 5263 5265 5267 5268 5270 5272 5274 5276 5278
5222 5224 5226 5227 5229 5230 5230 5231 5231 5232 5232 5233 5233 5234 5234 5234 5235 5235 5236 5237 5238 5240 5241 5243 5244 5246 5247 5248 5249 5251 5252 5254 5256 5258 5259 5261 5263 5265 5267 5269 5271 5273
5218 5220 5222 5223 5225 5226 5226 5227 5227 5228 5228 5229 5229 5229 5230 5230 5230 5231 5232 5233 5234 5235 5236 5238 5239 5241 5242 5244 5245 5246 5247 5249 5250 5253 5255 5256 5258 5260 5262 5264 5266 5267
5215 5217 5218 5220 5221 5222 5223 5223 5224 5225 5225 5225 5225 5226 5226 5226 5227 5227 5228 5229 5230 5231 5232 5233 5234 5236 5237 5239 5240 5242 5243 5244 5246 5248 5250 5251 5253 5254 5256 5257 5259 5261
5213 5215 5216 5217 5219 5220 5220 5221 5222 5222 5222 5222 5223 5223 5223 5224 5224 5224 5225 5225 5226 5227 5228 5229 5230 5232 5233 5234 5235 5236 5237 5239 5240 5242 5244 5245 5247 5248 5249 5251 5252 5254
5212 5213 5214 5216 5217 5218 5218 5219 5219 5220 5220 5221 5221 5221 5221 5222 5222 5222 5223 5223 5224 5224 5225 5225 5226 5227 5228 5229 5230 5231 5232 5234 5235 5236 5238 5239 5241 5242 5243 5244 5246 5247
5212 5213 5214 5215 5215 5216 5217 5218 5218 5219 5219 5219 5219 5219 5219 5220 5220 5220 5221 5221 5221 5222 5222 5222 5223 5223 5224 5225 5225 5226 5227 5228 5229 5231 5232 5233 5234 5235 5236 5237 5238 5239
5212 5213 5214 5214 5215 5216 5217 5217 5217 5218 5218 5218 5218 5218 5218 5218 5219 5219 5219 5220 5220 5220 5220 5220 5220 5220 5221 5221 5221 5222 5222 5223 5224 5225 5226 5227 5228 5229 5229 5230 5231 5232
5213 5214 5214 5215 5215 5216 5216 5217 5217 5217 5217 5217 5217 5218 5218 5218 5218 5218 5218 5218 5218 5218 5218 5218 5218 5218 5218 5218 5218 5218 5219 5219 5220 5221 5222 5223 5224 5224 5224 5225 5226 5226
Wind_Speed
29 29 31 32 33 34 36 37 38 39 40 41 42 43 43 43 41 40 41 43 47 52 60 69 76 85 95 102 105 106 108 108 106 104 102 101 99 97 95 95 95 94
29 29 29 30 32 33 35 36 38 39 40 41 42 42 42 42 41 38 37 38 41 43 47 53 61 69 79 90 97 101 105 108 108 106 103 101 100 98 96 94 95 95
30 30 29 28 30 32 33 35 37 38 39 40 41 41 41 41 39 37 35 35 37 39 40 43 48 54 62 73 84 92 98 104 107 108 105 102 100 100 98 95 94 95
31 30 29 28 28 29 31 34 35 37 38 38 39 39 39 38 37 35 34 33 34 36 38 39 40 42 47 56 68 79 89 97 102 107 108 105 101 99 98 96 94 92
32 31 29 28 27 27 29 31 33 35 36 37 38 38 37 37 36 35 34 33 32 33 35 37 38 38 40 44 53 64 76 85 92 99 105 107 105 100 97 96 94 90
33 32 30 29 28 26 27 28 30 32 34 35 36 36 36 36 35 35 34 33 33 32 33 35 37 38 39 40 43 50 60 71 80 89 96 102 105 104 100 96 94 91
34 33 32 30 29 28 26 26 27 29 31 33 34 34 34 35 35 34 34 34 34 33 32 32 34 35 37 39 39 42 48 57 67 77 86 93 99 103 102 100 96 94
35 34 33 31 30 28 26 25 25 27 29 32 33 32 33 34 34 34 34 34 33 33 33 32 31 32 33 34 35 37 40 46 55 65 73 81 89 96 100 101 99 97
35 35 33 32 30 28 27 25 24 25 28 30 31 31 32 33 33 33 33 33 32 33 33 33 32 32 31 31 31 32 33 37 44 53 62 69 77 85 92 97 99 99
36 35 34 32 31 29 28 27 24 24 26 28 30 31 31 31 32 32 32 32 32 33 32 32 33 33 33 32 31 30 30 31 35 42 50 59 66 73 81 88 94 97
36 36 34 33 30 29 28 28 26 24 24 25 28 29 30 31 32 32 32 31 32 32 31 31 32 33 33 33 33 32 31 29 29 33 39 47 55 63 70 77 85 90
36 35 35 33 31 29 29 27 26 25 24 24 25 27 29 30 31 32 32 32 32 32 31 31 32 32 33 33 33 33 32 31 29 29 31 36 43 51 59 66 73 80
35 34 34 34 32 30 28 27 27 26 25 24 24 24 26 28 31 32 32 32 32 32 32 32 32 32 32 32 32 32 32 31 31 29 29 31 35 41 48 55 61 68
34 32 33 33 32 29 27 27 27 27 26 25 24 23 24 26 29 31 33 33 33 33 33 33 33 33 33 32 32 32 32 31 31 31 30 30 32 35 39 45 51 57
33 31 30 31 30 28 28 28 27 27 27 26 25 24 23 24 26 29 32 33 33 33 33 34 34 34 34 33 33 33 34 33 32 32 32 32 32 33 35 39 44 49
32 30 28 29 29 28 28 28 28 28 27 26 25 24 23 23 24 26 29 32 33 33 33 34 35 35 34 34 35 35 35 35 34 33 33 34 34 34 35 37 39 43
31 30 28 29 29 28 28 28 29 28 27 26 25 24 23 23 24 26 27 30 32 33 32 32 33 34 34 35 36 37 37 36 36 36 36 36 36 36 36 37 38 40
30 29 29 28 28 28 28 29 29 28 26 25 24 24 23 24 25 26 26 28 30 31 31 31 32 33 34 36 37 38 38 38 37 37 38 38 38 39 39 40 40 41
26 26 27 27 27 28 28 28 27 26 24 24 23 24 24 24 24 25 25 26 27 28 30 30 31 33 34 35 37 38 39 39 40 40 40 40 41 41 41 42 43 43
21 21 22 23 24 25 25 24 24 22 22 22 23 23 23 23 22 22 23 24 25 26 28 29 31 33 34 35 36 37 39 40 41 41 41 41 41 42 42 43 44 45
16 16 16 17 18 19 19 20 19 19 19 20 20 20 19 18 17 17 18 20 20 22 24 25 28 30 31 33 34 35 37 39 40 41 41 42 42 43 44 45 45 47
9 10 10 11 12 13 14 15 15 14 15 14 13 13 12 12 12 13 14 15 16 17 19 20 23 25 27 29 30 32 33 35 37 38 39 41 42 44 45 46 47 48
4 5 6 7 8 9 9 10 9 9 9 9 9 9 10 11 12 12 14 15 15 16 17 18 20 22 24 26 28 30 32 34 35 37 38 39 41 43 44 46 47 48
2 3 4 4 5 4 4 5 5 6 7 7 7 8 8 8 9 9 10 11 12 13 14 15 17 19 21 22 24 26 28 30 32 33 33 34 35 37 39 40 42 43
4 4 3 3 3 2 2 2 3 3 4 4 4 4 4 5 5 6 6 7 9 10 11 13 15 16 18 19 20 22 23 24 24 23 22 23 24 26 27 29 31 33
6 6 5 5 4 3 3 3 3 4 4 4 4 4 4 4 5 6 7 8 9 11 12 14 14 15 15 15 14 13 12 11 11 11 11 13 14 16 18 19 21 23
Wind_Direction
277 274 269 266 264 262 259 256 254 254 254 254 256 258 261 263 263 259 255 251 249 248 246 244 242 239 237 236 235 234 233 234 234 235 235 235 235 235 236 239 241 241
284 280 273 267 263 260 257 255 254 253 254 254 254 256 258 261 262 261 258 254 251 249 249 248 245 242 239 237 237 235 234 233 233 233 234 234 234 234 234 236 238 240
286 285 279 271 264 260 257 255 254 253 253 253 254 256 258 260 262 263 261 258 254 251 250 250 249 247 243 240 238 237 235 233 232 232 233 233 233 233 233 234 236 238
284 283 281 274 268 263 258 255 254 253 253 253 254 255 257 260 262 263 263 260 257 253 250 251 251 250 248 244 240 238 236 234 233 233 233 234 234 233 233 233 233 235
283 282 282 279 274 267 261 257 254 253 253 253 254 255 257 259 261 263 263 262 259 256 252 250 250 250 249 247 244 241 238 235 234 233 234 234 235 234 234 233 232 232
284 283 284 283 281 274 266 260 256 253 253 254 254 255 257 259 261 264 265 264 262 259 255 252 250 248 248 248 247 244 241 237 234 233 233 234 235 235 235 234 233 232
283 283 283 284 283 280 272 263 258 254 252 253 254 255 257 260 262 263 264 264 262 260 258 256 253 250 248 247 247 246 243 239 236 234 233 233 234 235 236 235 235 235
281 281 282 282 283 282 278 270 261 256 252 252 254 254 256 259 261 262 262 263 263 261 260 258 257 255 251 249 248 247 245 242 238 236 234 233 233 234 235 236 236 236
280 280 281 281 281 282 281 277 268 259 253 251 251 252 254 257 260 262 263 263 263 260 259 257 256 255 254 252 251 250 247 244 241 238 235 234 233 233 234 235 236 236
278 279 279 280 281 282 281 280 276 267 258 253 250 250 251 254 257 260 262 263 262 261 259 257 256 255 254 254 253 253 251 247 244 241 237 235 234 233 233 234 235 236
275 276 277 278 279 280 279 279 278 274 266 258 253 250 249 250 254 258 260 261 261 262 261 258 256 254 254 253 253 253 253 250 247 243 240 237 235 234 233 234 234 235
274 274 274 275 276 276 277 278 278 277 272 265 259 253 250 249 251 255 257 258 260 261 261 259 257 255 254 253 252 251 251 250 249 245 241 238 236 234 233 233 234 234
274 272 271 272 273 274 276 278 278 277 275 270 265 259 254 251 250 251 254 256 257 258 258 258 258 257 255 254 253 252 250 248 247 245 243 239 237 235 234 233 233 233
275 272 270 270 271 273 276 278 278 277 275 273 269 265 260 255 251 250 250 252 253 254 255 256 257 257 256 255 254 253 251 248 246 244 242 241 238 236 235 234 233 233
274 272 270 269 270 272 274 277 278 276 274 273 271 269 267 263 257 252 250 250 250 250 250 252 254 255 256 256 255 253 252 250 247 244 242 241 240 238 236 234 234 234
271 270 268 267 267 269 272 276 277 275 273 272 272 271 271 270 266 259 253 249 248 248 247 247 249 251 252 253 254 253 252 251 250 247 244 242 241 240 238 237 236 235
268 267 264 263 265 269 273 276 277 276 273 271 271 272 273 273 271 266 258 252 248 247 245 244 244 245 246 248 251 252 251 251 249 248 246 245 243 242 241 240 239 238
266 265 263 263 266 268 271 274 277 276 273 270 271 273 275 275 273 268 262 256 251 248 245 243 242 241 242 244 247 249 251 251 250 249 248 246 245 243 242 241 241 241
265 265 263 263 263 265 269 274 276 275 271 271 273 275 275 274 270 266 261 256 251 247 244 242 241 241 241 242 245 247 249 250 250 249 249 248 247 246 245 244 244 244
266 267 264 262 262 264 270 273 274 272 272 273 275 276 275 273 269 265 261 257 253 249 246 244 243 243 243 244 245 246 247 249 250 250 250 250 250 249 249 248 248 248
268 267 265 263 264 266 269 271 272 274 275 277 277 277 276 274 271 268 263 259 255 252 250 249 248 248 248 248 248 248 248 249 250 250 250 250 249 249 249 249 249 248
271 269 267 265 266 268 270 272 275 277 277 277 277 276 275 273 272 269 266 263 260 258 257 255 253 253 252 252 252 252 251 251 250 250 249 249 249 249 249 249 249 249
280 276 273 273 273 274 275 276 276 274 274 275 277 278 278 278 277 274 272 269 266 263 261 260 259 257 255 255 254 254 254 253 253 252 251 251 251 251 251 251 251 251
337 309 297 293 292 287 283 280 277 278 282 285 288 290 290 287 285 282 278 274 270 268 267 267 266 265 262 261 259 259 258 258 258 258 258 257 256 255 254 254 253 253
12 360 351 351 357 355 335 316 309 309 314 317 319 319 319 318 315 310 303 296 290 285 282 278 275 273 272 271 269 269 269 268 266 264 261 257 255 253 252 251 251 251
28 31 38 42 42 40 37 38 37 35 28 18 8 360 349 340 332 323 316 309 302 294 286 280 277 275 275 275 272 268 263 258 251 245 240 238 239 241 244 245 245 247